[[{"header":{"parameterUnit":"m.s-1","parameterCategory":1,"la1":30.2991,"la2":30.254,"lo1":-89.0895,"lo2":-89.0444,"dy":0.0017,"dx":0.0017,"nx":28,"ny":28,"refTime":"2024-09-01T09:00:00:Z","depth":0,"parameterNumber":2,"parameterNumberName":"U-component_of_WINDS"},"data":[0,0,0,0,0,0,0,0,0,0,0,0,0,0,0,0,0,0,0,0,0,0,0,0,0,0,0,0,0,0,0,0,0,0,0,0,0,0,0,0,0,0,0,0,0,0,0,0,0,0,0,0,0,0,0,0,0,0,-0.0243,-0.0243,0,-0.0215,-0.0215,-0.0215,-0.0158,-0.0157,-0.0156,-0.0155,-0.013,-0.0131,-0.0131,0,0,0,0,0,0,0,0,0,0,0,0,0,-0.025,-0.025,-0.0243,-0.0243,-0.0243,-0.0215,-0.0215,-0.0214,-0.0159,-0.0157,-0.0156,-0.0155,-0.013,-0.0131,-0.0131,0,0,0,0,0,0,0,0,0,0,0,0,0,-0.0237,-0.025,-0.0243,-0.0211,-0.0208,-0.0215,-0.0215,-0.0214,-0.0159,-0.0157,-0.0156,-0.0154,-0.013,-0.0131,-0.0131,-0.0168,0,0,-0.0133,-0.0133,0,0,0,0,0,0,0,0,-0.0238,-0.0237,-0.0216,-0.0213,-0.021,-0.0188,-0.0208,-0.0199,-0.0159,-0.0178,-0.0155,-0.0153,-0.0151,-0.015,-0.0149,-0.0167,-0.0166,-0.0133,-0.0133,-0.0133,-0.0134,0,0,0,0,0,0,0,-0.0239,-0.0238,-0.0232,-0.0216,-0.0212,-0.0199,-0.0195,-0.0206,-0.0174,-0.0176,-0.0172,-0.0169,-0.0149,-0.0148,-0.0148,-0.0166,-0.0133,-0.0133,-0.0134,-0.0134,-0.0212,-0.0213,0,0,0,0,0,0,-0.0244,-0.0239,-0.0233,-0.0231,-0.022,-0.02,-0.0196,-0.0197,-0.0174,-0.0169,-0.0171,-0.0167,-0.0148,-0.0147,-0.0146,-0.0188,-0.0133,-0.0134,-0.0134,-0.021,-0.0212,-0.0214,0,0,0,0,0,0,-0.0244,-0.0244,-0.0234,-0.0234,-0.0232,-0.0202,-0.0204,-0.0198,-0.0196,-0.017,-0.0164,-0.0175,-0.0147,-0.0146,-0.0163,-0.0187,-0.0134,-0.0135,-0.0208,-0.0211,-0.0213,-0.0272,0,0,0,0,0,0,-0.0245,-0.0244,-0.0258,-0.0235,-0.0232,-0.0251,-0.0205,-0.0198,-0.0197,-0.0192,-0.0173,-0.0168,-0.0145,-0.0162,-0.0163,-0.0186,-0.0135,-0.0206,-0.0209,-0.0212,-0.0268,-0.0277,-0.0284,0,0,0,0,0,-0.0245,-0.0277,-0.0259,-0.0259,-0.0248,-0.0252,-0.0251,-0.0223,-0.0199,-0.0213,-0.0195,-0.0169,-0.0183,-0.0164,-0.0165,-0.0189,-0.0204,-0.0208,-0.0212,-0.0265,-0.0275,-0.0284,0,0,0,0,0,0,-0.0307,-0.0274,-0.0254,-0.0279,-0.0268,-0.0243,-0.026,-0.0235,-0.0232,-0.0228,-0.0194,-0.019,-0.0211,-0.0201,-0.0181,-0.0223,-0.0189,-0.0194,-0.0229,-0.0239,-0.0246,-0.0249,-0.0136,0,0,0,0,0,-0.0323,-0.0328,-0.0299,-0.0324,-0.032,-0.0291,-0.0291,-0.027,-0.0259,-0.0255,-0.0239,-0.023,-0.0231,-0.0234,-0.0235,-0.0265,-0.0261,-0.0282,-0.029,-0.0296,-0.0301,-0.0316,-0.0325,-0.0227,-0.0227,-0.0227,0,0,-0.0357,-0.034,-0.0345,-0.0336,-0.0326,-0.0332,-0.0288,-0.0297,-0.0302,-0.0257,-0.0272,-0.0259,-0.0246,-0.027,-0.028,-0.0262,-0.0326,-0.0301,-0.0307,-0.0308,-0.0321,-0.033,-0.0338,-0.0229,-0.0229,-0.0229,0,0,-0.0423,-0.041,-0.0429,-0.0419,-0.0403,-0.0382,-0.0387,-0.0364,-0.0354,-0.0367,-0.0333,-0.0338,-0.0343,-0.0335,-0.0332,-0.0391,-0.0366,-0.0392,-0.0434,-0.0449,-0.0456,-0.0463,-0.0485,-0.0493,-0.0396,-0.0396,-0.0396,0,-0.0469,-0.0476,-0.0442,-0.0453,-0.045,-0.0406,-0.0426,-0.0418,-0.0403,-0.0402,-0.0382,-0.0386,-0.0374,-0.0395,-0.0409,-0.0408,-0.0412,-0.0395,-0.0458,-0.0464,-0.047,-0.049,-0.0498,-0.04,-0.0399,-0.0399,-0.0399,0,-0.0533,-0.0539,-0.0556,-0.0541,-0.0539,-0.0555,-0.0523,-0.0525,-0.0503,-0.0485,-0.0499,-0.0483,-0.0479,-0.0481,-0.0461,-0.0499,-0.0489,-0.0464,-0.043,-0.0483,-0.0502,-0.0509,-0.0404,-0.0403,-0.0402,-0.0401,0,0,-0.0641,-0.0604,-0.0611,-0.0603,-0.0581,-0.0585,-0.0597,-0.0591,-0.0594,-0.0585,-0.0595,-0.0598,-0.0574,-0.057,-0.0547,-0.056,-0.0608,-0.0533,-0.0532,-0.0548,-0.0649,-0.0669,-0.0679,-0.059,-0.0591,-0.0592,-0.065,0,-0.0703,-0.0722,-0.069,-0.0717,-0.0721,-0.0678,-0.0689,-0.0676,-0.0658,-0.066,-0.0641,-0.0644,-0.0611,-0.0608,-0.0619,-0.06,-0.0628,-0.0595,-0.06,-0.06,-0.0607,-0.0688,-0.071,-0.0766,-0.0657,-0.0658,-0.0659,0,-0.078,-0.0772,-0.0798,-0.0772,-0.0773,-0.0783,-0.0774,-0.0776,-0.076,-0.0746,-0.074,-0.0712,-0.0723,-0.0687,-0.0701,-0.0679,-0.0679,-0.067,-0.0671,-0.0672,-0.0635,-0.0693,-0.0783,-0.0793,-0.067,-0.0669,-0.0668,0,-0.0857,-0.0853,-0.0868,-0.0862,-0.0832,-0.084,-0.0828,-0.081,-0.0808,-0.08,-0.0798,-0.0792,-0.0789,-0.0785,-0.0756,-0.0733,-0.0774,-0.0736,-0.0763,-0.0764,-0.0776,-0.0776,-0.0869,-0.0773,-0.0773,-0.0772,-0.0772,0,-0.0931,-0.095,-0.0902,-0.0912,-0.093,-0.0892,-0.0912,-0.0895,-0.0879,-0.0885,-0.0847,-0.0853,-0.0813,-0.0815,-0.0792,-0.0807,-0.0806,-0.0796,-0.079,-0.08,-0.0802,-0.0802,-0.0798,-0.0775,-0.0774,-0.0774,-0.0773,0,-0.1023,-0.0991,-0.1005,-0.0973,-0.0966,-0.0981,-0.0954,-0.0962,-0.094,-0.0948,-0.0947,-0.0914,-0.0913,-0.0883,-0.0877,-0.0862,-0.0887,-0.0873,-0.0892,-0.0889,-0.0918,-0.0916,-0.1015,-0.1027,-0.0922,-0.0923,-0.0923,0,-0.1074,-0.1086,-0.1055,-0.1055,-0.1044,-0.1046,-0.1042,-0.1005,-0.1003,-0.0984,-0.0994,-0.099,-0.0986,-0.0987,-0.0963,-0.0958,-0.0944,-0.0979,-0.0944,-0.0953,-0.0946,-0.0947,-0.0948,-0.0988,-0.0989,-0.099,-0.0991,0,-0.1167,-0.115,-0.1147,-0.1137,-0.1134,-0.1125,-0.1114,-0.1116,-0.1075,-0.1075,-0.1073,-0.1069,-0.1061,-0.1058,-0.1048,-0.1036,-0.1007,-0.1002,-0.1008,-0.102,-0.1032,-0.1027,-0.0915,-0.1001,-0.1,-0.0999,-0.0999,-0.0998,-0.1241,-0.1249,-0.1229,-0.1225,-0.1212,-0.1202,-0.1207,-0.1184,-0.1182,-0.1172,-0.1149,-0.1151,-0.1133,-0.1115,-0.1105,-0.1106,-0.1089,-0.1098,-0.11,-0.1104,-0.111,-0.1029,-0.1104,-0.1104,-0.1103,-0.1103,-0.1103,0,-0.1334,-0.1317,-0.1314,-0.1299,-0.1296,-0.1266,-0.1251,-0.1251,-0.1253,-0.1237,-0.1232,-0.123,-0.1225,-0.1199,-0.1192,-0.1198,-0.1184,-0.1197,-0.1198,-0.1195,-0.1125,-0.1121,-0.1208,-0.1208,-0.1208,-0.1208,-0.1208,-0.1208,-0.1382,-0.1395,-0.1375,-0.1381,-0.1364,-0.1364,-0.1358,-0.1348,-0.1335,-0.1334,-0.133,-0.1311,-0.1291,-0.1282,-0.1276,-0.1269,-0.1269,-0.1286,-0.1275,-0.121,-0.12,-0.1191,-0.1187,-0.1286,-0.1286,-0.1345,-0.1345,-0.1346]},{"header":{"parameterUnit":"m.s-1","parameterCategory":1,"la1":30.2991,"la2":30.254,"lo1":-89.0895,"lo2":-89.0444,"dy":0.0017,"dx":0.0017,"nx":28,"ny":28,"refTime":"2024-09-01T09:00:00:Z","depth":0,"parameterNumber":3,"parameterNumberName":"V-component_of_WINDS"},"data":[0,0,0,0,0,0,0,0,0,0,0,0,0,0,0,0,0,0,0,0,0,0,0,0,0,0,0,0,0,0,0,0,0,0,0,0,0,0,0,0,0,0,0,0,0,0,0,0,0,0,0,0,0,0,0,0,0,0,-4.0788,-4.0789,0,-4.0874,-4.0875,-4.0876,-4.0825,-4.0823,-4.082,-4.0818,-4.0902,-4.0906,-4.0911,0,0,0,0,0,0,0,0,0,0,0,0,0,-4.0577,-4.0581,-4.0788,-4.0789,-4.079,-4.0874,-4.0875,-4.0876,-4.0826,-4.0823,-4.082,-4.0817,-4.09,-4.0906,-4.0911,0,0,0,0,0,0,0,0,0,0,0,0,0,-4.0666,-4.0582,-4.0788,-4.0775,-4.0775,-4.0873,-4.0875,-4.0876,-4.0826,-4.0823,-4.0819,-4.0816,-4.0898,-4.0905,-4.0912,-4.1026,0,0,-4.0932,-4.0935,0,0,0,0,0,0,0,0,-4.0661,-4.0674,-4.0776,-4.0776,-4.0776,-4.0835,-4.0831,-4.0926,-4.0827,-4.0807,-4.0818,-4.0814,-4.0882,-4.089,-4.0914,-4.103,-4.1034,-4.0933,-4.0937,-4.094,-4.0942,0,0,0,0,0,0,0,-4.0655,-4.067,-4.0822,-4.0777,-4.0777,-4.0764,-4.0773,-4.0849,-4.0864,-4.0808,-4.0805,-4.0816,-4.0881,-4.0908,-4.0916,-4.1035,-4.0933,-4.0939,-4.0943,-4.0945,-4.1249,-4.1253,0,0,0,0,0,0,-4.065,-4.0665,-4.0819,-4.0824,-4.0709,-4.0771,-4.078,-4.082,-4.0863,-4.0866,-4.0819,-4.0813,-4.0898,-4.0908,-4.0918,-4.1055,-4.094,-4.0946,-4.095,-4.1245,-4.125,-4.1255,0,0,0,0,0,0,-4.0646,-4.0664,-4.0815,-4.0744,-4.0762,-4.0778,-4.0823,-4.0823,-4.0849,-4.0871,-4.0873,-4.0843,-4.0895,-4.0909,-4.1,-4.1058,-4.0949,-4.0955,-4.1241,-4.1247,-4.1252,-4.133,0,0,0,0,0,0,-4.064,-4.0663,-4.0708,-4.0745,-4.0766,-4.0897,-4.0826,-4.0828,-4.0862,-4.0855,-4.0894,-4.0897,-4.0894,-4.099,-4.1007,-4.1065,-4.0961,-4.1235,-4.1243,-4.125,-4.1323,-4.1338,-4.1352,0,0,0,0,0,-4.0633,-4.0725,-4.071,-4.0729,-4.0822,-4.09,-4.0912,-4.0908,-4.0867,-4.0911,-4.0925,-4.0896,-4.1049,-4.1,-4.1018,-4.1079,-4.1232,-4.1241,-4.125,-4.1316,-4.1335,-4.1351,0,0,0,0,0,0,-4.0692,-4.073,-4.0713,-4.0821,-4.0858,-4.0892,-4.0947,-4.0928,-4.0976,-4.0968,-4.0959,-4.0968,-4.1063,-4.108,-4.1025,-4.1192,-4.1134,-4.1147,-4.1178,-4.1196,-4.121,-4.1204,-4.0966,0,0,0,0,0,-4.0718,-4.078,-4.0809,-4.0901,-4.092,-4.0931,-4.0965,-4.0959,-4.0996,-4.1011,-4.1031,-4.1068,-4.1124,-4.1161,-4.1214,-4.1325,-4.1333,-4.1376,-4.139,-4.1402,-4.1413,-4.1474,-4.1493,-4.1284,-4.1284,-4.1284,0,0,-4.0771,-4.08,-4.0839,-4.0913,-4.0941,-4.1005,-4.0944,-4.1013,-4.106,-4.1021,-4.1109,-4.1125,-4.1165,-4.1267,-4.1313,-4.1284,-4.1473,-4.1414,-4.1423,-4.1428,-4.1485,-4.1505,-4.1522,-4.1291,-4.1289,-4.1288,0,0,-4.0901,-4.0929,-4.1009,-4.1039,-4.1083,-4.1089,-4.1109,-4.1146,-4.1156,-4.1244,-4.1216,-4.1271,-4.1368,-4.1398,-4.1425,-4.1568,-4.1543,-4.1585,-4.1661,-4.172,-4.1736,-4.1751,-4.1801,-4.182,-4.1597,-4.1597,-4.1597,0,-4.0961,-4.1057,-4.1052,-4.1124,-4.1158,-4.1127,-4.1208,-4.1236,-4.1294,-4.1318,-4.1285,-4.1407,-4.1432,-4.154,-4.1575,-4.1599,-4.162,-4.1581,-4.1734,-4.1749,-4.1762,-4.1811,-4.183,-4.1602,-4.1601,-4.1601,-4.16,0,-4.1129,-4.1196,-4.1255,-4.1314,-4.1354,-4.143,-4.1436,-4.1477,-4.1467,-4.1477,-4.1567,-4.1596,-4.1655,-4.168,-4.1671,-4.1788,-4.1768,-4.1736,-4.1676,-4.1787,-4.1832,-4.1851,-4.1609,-4.1607,-4.1605,-4.1604,0,0,-4.1297,-4.1354,-4.1376,-4.1403,-4.1449,-4.15,-4.1574,-4.1633,-4.1669,-4.171,-4.1772,-4.1855,-4.1825,-4.1857,-4.1851,-4.1902,-4.2014,-4.1863,-4.1864,-4.189,-4.2144,-4.2169,-4.219,-4.1998,-4.2001,-4.2004,-4.2141,0,-4.143,-4.1561,-4.156,-4.1681,-4.1742,-4.1715,-4.178,-4.1815,-4.1826,-4.1879,-4.1891,-4.195,-4.1906,-4.1925,-4.1976,-4.199,-4.2064,-4.198,-4.2054,-4.2057,-4.2045,-4.2214,-4.224,-4.2367,-4.2158,-4.2161,-4.2164,0,-4.1602,-4.1651,-4.1779,-4.1818,-4.1843,-4.1902,-4.1956,-4.2007,-4.2046,-4.2051,-4.2087,-4.2073,-4.2148,-4.2087,-4.2189,-4.2132,-4.2162,-4.2173,-4.2178,-4.2184,-4.2116,-4.2224,-4.2408,-4.2427,-4.2191,-4.2189,-4.2187,0,-4.1712,-4.181,-4.1899,-4.1923,-4.197,-4.2012,-4.2033,-4.2069,-4.2105,-4.2152,-4.2175,-4.2229,-4.2259,-4.2301,-4.2302,-4.2257,-4.2405,-4.2344,-4.241,-4.241,-4.2442,-4.244,-4.2632,-4.2462,-4.2462,-4.2461,-4.2461,0,-4.186,-4.1939,-4.1949,-4.2004,-4.2092,-4.209,-4.2176,-4.2193,-4.2226,-4.2283,-4.2262,-4.2315,-4.2313,-4.2368,-4.2368,-4.2453,-4.2466,-4.2471,-4.2471,-4.2473,-4.2473,-4.2492,-4.2483,-4.2466,-4.2465,-4.2464,-4.2463,0,-4.1997,-4.2007,-4.2103,-4.2141,-4.2152,-4.2215,-4.2247,-4.2298,-4.2309,-4.2381,-4.2398,-4.2413,-4.2476,-4.2481,-4.2554,-4.2554,-4.2656,-4.2646,-4.2644,-4.2642,-4.2707,-4.2701,-4.2919,-4.2948,-4.2759,-4.2761,-4.2763,0,-4.209,-4.2151,-4.2196,-4.2234,-4.2258,-4.2318,-4.2355,-4.2355,-4.2394,-4.2444,-4.249,-4.2551,-4.26,-4.2702,-4.2718,-4.2774,-4.2764,-4.2837,-4.2772,-4.2773,-4.2765,-4.2761,-4.2767,-4.2849,-4.2851,-4.2853,-4.2854,0,-4.2255,-4.2258,-4.2312,-4.237,-4.2415,-4.246,-4.2501,-4.2533,-4.2538,-4.2583,-4.2648,-4.2686,-4.2761,-4.2822,-4.2876,-4.2896,-4.2876,-4.2875,-4.2893,-4.2896,-4.2892,-4.2895,-4.2678,-4.287,-4.2868,-4.2867,-4.2866,-4.2866,-4.2373,-4.2426,-4.2466,-4.2528,-4.256,-4.26,-4.2651,-4.2668,-4.2723,-4.2785,-4.2782,-4.2853,-4.2891,-4.2962,-4.2987,-4.3043,-4.3018,-4.3044,-4.3051,-4.3057,-4.3064,-4.2884,-4.3052,-4.3052,-4.3052,-4.3051,-4.3051,0,-4.2536,-4.2562,-4.2619,-4.2679,-4.2728,-4.2707,-4.2752,-4.2794,-4.2858,-4.2896,-4.2945,-4.302,-4.3079,-4.3101,-4.3159,-4.3199,-4.3191,-4.3214,-4.3211,-4.3216,-4.3083,-4.3061,-4.3219,-4.3219,-4.3219,-4.3219,-4.3219,-4.3219,-4.2627,-4.2716,-4.2724,-4.2828,-4.2852,-4.2923,-4.2951,-4.2987,-4.3018,-4.3103,-4.3153,-4.3168,-4.3199,-4.3259,-4.3312,-4.3317,-4.3339,-4.3366,-4.3367,-4.3242,-4.3225,-4.3209,-4.3189,-4.3371,-4.3371,-4.3495,-4.3496,-4.3497]}]]